GW4332 Weather Reports


time (UTC)temp
C
wind
direction
speed
KPH
gust
KPH
rain 1hr
cm
rain 24hr
cm
rain mn
cm
humidity
%
barometer
mb
20260903211030 19 210 14.5 27.4 0.00 0.00 0.15 90 1014.9
20260903210030 19 201 9.7 22.5 0.00 0.00 0.15 89 1015.0
20260903205030 19 187 9.7 17.7 0.00 0.00 0.15 89 1015.0
20260903204029 19 190 6.4 17.7 0.00 0.00 0.15 89 1015.2
20260903203030 19 185 9.7 17.7 0.00 0.00 0.15 88 1015.3
20260903202030 19 187 6.4 12.9 0.00 0.00 0.15 88 1015.2
20260903201030 19 195 6.4 16.1 0.00 0.00 0.15 88 1015.3
20260903200029 19 190 8.0 17.7 0.00 0.00 0.15 89 1015.3
20260903195030 19 217 8.0 17.7 0.00 0.00 0.15 89 1015.4
20260903194030 20 215 11.3 20.9 0.00 0.00 0.15 88 1015.6
20260903193030 20 230 14.5 24.1 0.00 0.00 0.15 88 1015.6
20260903192030 20 225 19.3 29.0 0.00 0.00 0.15 88 1015.7
20260903191029 20 232 17.7 25.7 0.00 0.00 0.15 88 1015.6
20260903190030 20 226 19.3 29.0 0.00 0.00 0.15 88 1015.8
20260903185030 20 226 17.7 24.1 0.00 0.00 0.15 87 1015.6
20260903184029 20 230 16.1 24.1 0.00 0.00 0.15 87 1015.7
20260903183030 20 235 19.3 25.7 0.00 0.00 0.15 86 1015.8
20260903182030 20 241 25.7 33.8 0.00 0.00 0.15 86 1015.8
20260903181030 20 225 20.9 30.6 0.00 0.00 0.15 86 1015.8
20260903180030 20 228 20.9 27.4 0.00 0.00 0.15 86 1015.7
20260903175030 20 239 20.9 27.4 0.00 0.00 0.15 85 1015.6
20260903174030 20 236 20.9 25.7 0.00 0.00 0.15 84 1015.9
20260903173030 20 239 19.3 25.7 0.00 0.00 0.15 84 1015.4
20260903172030 20 238 19.3 25.7 0.00 0.00 0.15 84 1015.2
20260903171030 20 234 20.9 25.7 0.00 0.00 0.15 84 1015.5
20260903170030 20 230 17.7 24.1 0.00 0.00 0.15 85 1015.4
20260903165030 20 240 19.3 24.1 0.00 0.00 0.15 85 1015.3
20260903164030 20 240 20.9 27.4 0.00 0.00 0.15 84 1015.5
20260903163029 20 246 24.1 32.2 0.00 0.00 0.15 83 1015.4
20260903162030 20 245 25.7 33.8 0.00 0.00 0.15 82 1015.6
20260903161030 20 246 25.7 33.8 0.00 0.00 0.15 82 1015.5
20260903160030 20 240 20.9 29.0 0.00 0.00 0.15 83 1015.5
20260903155030 20 236 20.9 32.2 0.00 0.00 0.15 83 1015.5
20260903154029 20 237 24.1 30.6 0.00 0.00 0.15 82 1015.6
20260903153030 20 237 25.7 35.4 0.00 0.00 0.15 81 1015.5
20260903152030 20 228 25.7 38.6 0.00 0.00 0.15 82 1015.6
20260903151030 20 229 29.0 38.6 0.00 0.00 0.15 82 1015.5
20260903150030 20 236 25.7 38.6 0.00 0.00 0.15 83 1015.4
20260903145030 20 243 27.4 41.8 0.00 0.00 0.15 82 1015.2
20260903144030 20 244 27.4 37.0 0.00 0.00 0.15 83 1015.3
20260903143030 20 257 30.6 40.2 0.00 0.00 0.15 85 1015.4
20260903142030 20 249 38.6 45.1 0.00 0.00 0.15 83 1015.3
20260903141030 20 249 27.4 40.2 0.00 0.00 0.15 84 1015.2
20260903140029 20 239 29.0 38.6 0.00 0.00 0.15 83 1015.4
20260903135030 20 247 25.7 37.0 0.00 0.00 0.15 83 1015.5
20260903134030 20 258 30.6 40.2 0.00 0.00 0.15 82 1015.3
20260903133030 20 254 38.6 51.5 0.00 0.00 0.15 81 1015.1
20260903132029 20 263 38.6 51.5 0.00 0.00 0.15 81 1015.1
20260903131030 20 251 38.6 48.3 0.00 0.00 0.15 82 1015.2
20260903130030 20 258 38.6 49.9 0.00 0.00 0.15 82 1015.1
20260903125030 20 252 38.6 49.9 0.00 0.00 0.15 84 1015.1
20260903124030 20 255 37.0 48.3 0.00 0.00 0.15 83 1014.8
20260903123030 20 251 30.6 40.2 0.00 0.00 0.15 84 1014.9
20260903122030 20 239 32.2 45.1 0.00 0.00 0.15 84 1014.9
20260903121030 20 238 30.6 41.8 0.00 0.00 0.15 84 1015.0
20260903120029 20 246 32.2 46.7 0.00 0.00 0.15 84 1014.8
20260903115030 20 253 35.4 43.5 0.00 0.00 0.15 85 1014.8
20260903114030 20 238 35.4 46.7 0.00 0.00 0.15 85 1014.6
20260903113030 20 247 35.4 49.9 0.00 0.00 0.15 85 1014.4
20260903112029 20 247 33.8 49.9 0.00 0.00 0.15 84 1014.4
20260903111030 20 254 37.0 49.9 0.00 0.00 0.15 84 1014.4
20260903110030 20 237 37.0 49.9 0.00 0.00 0.15 85 1014.4
20260903105030 20 256 38.6 54.7 0.00 0.00 0.15 85 1014.3
20260903104029 20 250 40.2 54.7 0.00 0.00 0.15 84 1014.0
20260903103030 20 240 30.6 41.8 0.00 0.00 0.15 85 1014.3
20260903102030 20 244 32.2 43.5 0.00 0.00 0.15 85 1014.3
20260903101029 20 225 30.6 43.5 0.00 0.00 0.15 86 1014.4
20260903100030 20 241 29.0 38.6 0.00 0.00 0.15 86 1014.4
20260903095030 20 236 27.4 37.0 0.00 0.00 0.15 87 1014.5
20260903094030 19 239 30.6 41.8 0.00 0.00 0.15 89 1014.3
20260903093030 19 247 30.6 38.6 0.00 0.00 0.15 90 1014.3
20260903092029 19 214 27.4 40.2 0.00 0.00 0.15 91 1014.2
20260903091030 19 216 24.1 38.6 0.00 0.00 0.15 92 1014.4
20260903090030 18 216 22.5 33.8 0.00 0.00 0.15 93 1014.4
20260903085029 18 219 20.9 37.0 0.00 0.00 0.15 93 1014.3
20260903084030 18 216 16.1 25.7 0.00 0.00 0.15 94 1014.1
20260903083030 18 210 19.3 33.8 0.00 0.00 0.15 94 1014.0
20260903082030 18 227 22.5 33.8 0.00 0.00 0.15 94 1014.1
20260903081030 18 221 22.5 33.8 0.00 0.00 0.15 94 1014.1
20260903080030 18 229 24.1 35.4 0.00 0.00 0.15 94 1014.1
20260903075030 18 228 24.1 37.0 0.00 0.00 0.15 94 1014.0
20260903074029 18 235 29.0 40.2 0.00 0.00 0.15 94 1013.8
20260903073030 18 235 27.4 45.1 0.00 0.00 0.15 94 1013.9
20260903072030 18 216 17.7 30.6 0.00 0.00 0.15 94 1014.1
20260903071030 18 198 14.5 25.7 0.00 0.00 0.10 94 1014.2
20260903070030 17 197 12.9 22.5 0.00 0.00 0.08 93 1014.1
20260903065030 17 199 9.7 22.5 0.00 0.00 0.08 93 1014.0
20260903064030 17 185 12.9 25.7 0.00 0.00 0.05 93 1014.0
20260903063030 17 198 16.1 27.4 0.00 0.00 0.05 93 1013.9
20260903062030 17 209 14.5 29.0 0.00 0.00 0.05 92 1014.0
20260903061030 17 194 11.3 25.7 0.00 0.00 0.05 92 1013.8
20260903060030 17 181 9.7 30.6 0.00 0.00 0.03 92 1013.9
20260903055030 17 205 12.9 20.9 0.00 0.00 0.03 91 1014.0
20260903054029 17 203 12.9 25.7 0.00 0.00 0.03 91 1014.2
20260903053033 17 191 12.9 24.1 0.00 0.00 0.03 91 1014.2
20260903052030 17 196 14.5 27.4 0.00 0.00 0.00 90 1014.2
20260903051030 17 208 14.5 25.7 0.00 0.00 0.00 90 1014.3
20260903050030 17 188 14.5 32.2 0.00 0.00 0.00 89 1014.0
20260903045030 17 180 14.5 27.4 0.00 0.00 0.00 89 1013.9
20260903044030 17 190 11.3 27.4 0.00 0.00 0.00 89 1014.1
20260903043030 17 202 12.9 25.7 0.00 0.00 0.00 88 1014.1
20260903042031 17 193 12.9 25.7 0.00 0.00 0.00 87 1014.2
20260903041029 17 204 14.5 29.0 0.00 0.00 0.00 87 1014.2
20260903040031 17 200 16.1 32.2 0.00 0.00 0.00 86 1014.3
20260903035030 17 196 12.9 25.7 0.00 0.00 0.00 85 1014.4
20260903034030 17 184 14.5 29.0 0.00 0.00 0.00 85 1014.4
20260903033029 17 194 14.5 25.7 0.00 0.00 0.00 84 1014.6
20260903032030 17 193 14.5 29.0 0.00 0.00 0.00 84 1014.6
20260903031030 17 212 16.1 32.2 0.00 0.00 0.00 84 1014.7
20260903030030 17 201 14.5 24.1 0.00 0.00 0.00 83 1014.5
20260903025029 17 193 14.5 25.7 0.00 0.00 0.00 83 1014.7
20260903024030 17 209 14.5 25.7 0.00 0.00 0.00 82 1015.0
20260903023030 17 203 9.7 20.9 0.00 0.00 0.00 83 1015.0
20260903022030 17 208 9.7 17.7 0.00 0.00 0.00 82 1015.1
20260903021030 17 194 8.0 19.3 0.00 0.00 0.00 82 1015.1
20260903020030 17 192 11.3 19.3 0.00 0.00 0.00 82 1015.1
20260903015030 17 193 11.3 20.9 0.00 0.00 0.00 81 1015.1
20260903014030 17 194 9.7 22.5 0.00 0.00 0.00 81 1015.2
20260903013029 17 184 8.0 19.3 0.00 0.00 0.00 80 1015.2
20260903012030 17 194 6.4 25.7 0.00 0.00 0.00 80 1015.3
20260903011030 17 192 11.3 22.5 0.00 0.00 0.00 80 1015.5
20260903010030 17 202 11.3 22.5 0.00 0.00 0.00 80 1015.6
20260903005030 17 190 12.9 24.1 0.00 0.00 0.00 81 1015.8
20260903004030 17 195 11.3 22.5 0.00 0.00 0.00 81 1015.8
20260903003030 17 209 11.3 24.1 0.00 0.00 0.00 81 1015.9
20260903002030 17 198 12.9 30.6 0.00 0.00 0.00 82 1016.0
20260903001030 17 202 11.3 25.7 0.00 0.00 0.00 84 1016.0
20260903000030 17 191 8.0 20.9 0.00 0.00 0.00 85 1016.0
20260902235029 17 188 6.4 19.3 0.00 0.00 0.00 85 1016.1
20260902234030 17 162 3.2 12.9 0.00 0.00 0.00 86 1016.2
20260902233031 17 195 4.8 12.9 0.00 0.00 0.00 86 1016.4
20260902232030 17 174 4.8 12.9 0.00 0.00 0.00 86 1016.6
20260902231030 17 196 8.0 16.1 0.00 0.00 0.00 87 1016.8
20260902230030 17 192 11.3 22.5 0.00 0.00 0.00 87 1017.1
20260902225029 17 190 9.7 25.7 0.00 0.00 0.00 88 1017.1
20260902224030 17 138 1.6 6.4 0.00 0.00 0.00 88 1017.3
20260902223030 17 140 3.2 9.7 0.00 0.00 0.00 88 1017.3
20260902222030 17 137 3.2 8.0 0.00 0.00 0.00 87 1017.4
20260902221030 17 141 1.6 6.4 0.00 0.00 0.00 87 1017.6
20260902220030 17 139 1.6 6.4 0.00 0.00 0.05 87 1017.7
20260902215030 17 178 3.2 12.9 0.00 0.00 0.05 86 1017.7
20260902214030 17 191 6.4 16.1 0.00 0.00 0.05 86 1017.9
20260902213030 17 181 8.0 19.3 0.00 0.00 0.03 86 1018.1
20260902212029 17 193 6.4 14.5 0.00 0.00 0.03 86 1018.1